Location: Invercargill
(46.4000°S, 168.3500°E)
Time: 23:30:42
(UTC+12:00)

ISS - Visible Passes

Search period start: 14 May 2021 00:00
Search period end: 24 May 2021 00:00
Orbit: 417 x 422 km, 51.6° (Epoch: 14 May)

Date Brightness Start Highest point End Pass type
(mag) Time Alt. Az. Time Alt. Az. Time Alt. Az.
20 May -0.7 07:15:55 10° N 07:18:21 18° NE 07:20:47 10° E visible
21 May -0.4 06:29:53 10° NNE 06:31:06 12° NE 06:32:20 10° ENE visible
22 May -2.4 07:16:40 10° NW 07:19:57 43° NE 07:23:15 10° ESE visible
23 May -1.7 06:29:35 10° NNW 06:32:34 28° NE 06:35:35 10° E visible
